Tracking 29892 objects as of 21-Nov-2024
HD Live streaming from Space Station
objects crossing your sky now

GMS-T

Track GMS-T now!
10-day predictions


NORAD ID: 47346
Int'l Code: 2021-004A
Perigee: 1,202.5 km
Apogee: 1,207.0 km
Inclination: 90.1 °
Period: 109.4 minutes
Semi major axis: 7575 km
RCS: Unknown
Launch date: January 20, 2021
Source: Germany (GER)
Launch site: Rocket Lab Launch Complex (RLLC)
Your satellite tracking list
Your tracking list is empty




NASA's NSSDC Master Catalog

Two Line Element Set (TLE):
1 47346U 21004A   24325.18036559  .00000005  00000-0 -73810-5 0  9994
2 47346  90.0944 235.8174 0003005 128.9535 231.1865 13.16636505184064
Source of the keplerian elements: AFSPC